SIA26 EDDF-KJFK

Flight info

Callsign SIA26
Flight time N/A
Altitude 34000
Route OBOKA5G/25C OBOKA Z28 DIBIR DCT BUDIP DCT RAVLO Y70 OTBED DCT ABLUC DCT OZRAT DCT WETFI DCT REVNU DCT RESNO/M082F340 DCT 5620N DCT 5630N DCT 5640N DCT 5550N DCT LOMSI/N0484F340 N670A QUBIS DCT ENE PARCH4
Aircraft B77W/H-SDE1E2E3FGHIJ2J3J4J5M1RWXYZ/LB1D1

Departure

Time N/A
Airport Frankfurt Main Airport (EDDF)

Arrival

Time 2026-05-04 18:35
Airport John F. Kennedy International Airport (KJFK)
Time Latitude Longitude Altitude Speed Heading
2026-05-04 17:21 54.38919 -9.01763 34164 ft 456 kts 278°
2026-05-04 17:22 54.45201 -9.89300 34076 ft 457 kts 277°
2026-05-04 17:23 54.59821 -11.15691 34252 ft 457 kts 281°
2026-05-04 17:23 54.64968 -11.58660 34138 ft 456 kts 281°
2026-05-04 17:23 54.74551 -12.42809 34093 ft 437 kts 280°
2026-05-04 17:24 54.79051 -12.84306 34215 ft 443 kts 279°
2026-05-04 17:24 54.92045 -14.13069 34089 ft 447 kts 279°
2026-05-04 17:25 54.96016 -14.55540 34120 ft 442 kts 278°
2026-05-04 17:25 55.08798 -15.39393 34303 ft 463 kts 291°
2026-05-04 17:26 55.27002 -16.23177 34117 ft 450 kts 290°
2026-05-04 17:26 55.52655 -17.47339 34301 ft 461 kts 290°
2026-05-04 17:27 55.69099 -18.31332 34133 ft 443 kts 289°
2026-05-04 17:27 55.84700 -19.14553 34311 ft 451 kts 288°
2026-05-04 17:28 56.00038 -20.00956 34194 ft 456 kts 282°
2026-05-04 17:29 56.04729 -21.34932 34349 ft 456 kts 273°
2026-05-04 17:29 56.07965 -22.69231 34176 ft 437 kts 272°
2026-05-04 17:30 56.09723 -24.01081 34354 ft 451 kts 270°
2026-05-04 17:31 56.10117 -24.90276 34218 ft 439 kts 270°
2026-05-04 17:31 56.09519 -26.22127 34391 ft 452 kts 268°
2026-05-04 17:32 56.08309 -27.11611 34261 ft 445 kts 268°
2026-05-04 17:33 56.05327 -28.44140 34381 ft 449 kts 267°
2026-05-04 17:33 56.04007 -28.88813 34454 ft 461 kts 266°
2026-05-04 17:34 56.00740 -30.26099 34348 ft 454 kts 276°
2026-05-04 17:34 56.02712 -30.71139 34348 ft 457 kts 274°
2026-05-04 17:35 56.06753 -32.11402 34313 ft 475 kts 275°
2026-05-04 17:35 56.08573 -33.04222 34284 ft 459 kts 274°
2026-05-04 17:35 56.09216 -33.50129 34390 ft 462 kts 274°
2026-05-04 17:36 56.09697 -33.96312 34424 ft 468 kts 273°
2026-05-04 17:36 56.10121 -34.88427 34253 ft 456 kts 272°
2026-05-04 17:37 56.09878 -35.77835 34348 ft 449 kts 271°
2026-05-04 17:37 56.08937 -36.69103 34298 ft 461 kts 272°
2026-05-04 17:38 56.07382 -37.59414 34203 ft 446 kts 272°
2026-05-04 17:38 56.05205 -38.48954 34358 ft 458 kts 272°
2026-05-04 17:38 56.03838 -38.93943 34257 ft 456 kts 272°
2026-05-04 17:39 56.00705 -39.82275 34162 ft 434 kts 271°
2026-05-04 17:39 55.95936 -40.67674 34215 ft 433 kts 268°
2026-05-04 17:40 55.90197 -41.54110 34183 ft 439 kts 265°
2026-05-04 17:40 55.83894 -42.39146 34071 ft 426 kts 263°
2026-05-04 17:41 55.77064 -43.23485 34188 ft 446 kts 262°
2026-05-04 17:41 55.69270 -44.11831 34010 ft 452 kts 260°
2026-05-04 17:42 55.60985 -44.98426 34004 ft 446 kts 259°
2026-05-04 17:42 55.56557 -45.42292 34066 ft 459 kts 258°
2026-05-04 17:42 55.51851 -45.86834 33975 ft 460 kts 257°
2026-05-04 17:43 55.47059 -46.30805 33845 ft 451 kts 256°
2026-05-04 17:43 55.42209 -46.73843 33843 ft 448 kts 256°
2026-05-04 17:43 55.37126 -47.17252 33955 ft 459 kts 255°
2026-05-04 17:43 55.31749 -47.61880 33931 ft 470 kts 255°
2026-05-04 17:44 55.26191 -48.06579 33780 ft 467 kts 253°
2026-05-04 17:44 55.20515 -48.50703 33730 ft 462 kts 253°
2026-05-04 17:44 55.08512 -49.39900 33829 ft 481 kts 251°
2026-05-04 17:45 55.02133 -49.85297 33718 ft 480 kts 249°
2026-05-04 17:45 54.93622 -50.27376 33635 ft 457 kts 238°
2026-05-04 17:45 54.83254 -50.68393 33759 ft 471 kts 240°
2026-05-04 17:45 54.72779 -51.10503 33711 ft 480 kts 238°
2026-05-04 17:46 54.62015 -51.52697 33578 ft 476 kts 238°
2026-05-04 17:46 54.51326 -51.93953 33515 ft 468 kts 236°
2026-05-04 17:46 54.40388 -52.34979 33633 ft 478 kts 235°
2026-05-04 17:46 54.29004 -52.77244 33609 ft 495 kts 234°
2026-05-04 17:47 54.05473 -53.62282 33407 ft 486 kts 232°
2026-05-04 17:47 53.81634 -54.44957 33540 ft 499 kts 233°
2026-05-04 17:48 53.56651 -55.29113 33291 ft 494 kts 233°
2026-05-04 17:48 53.31744 -56.09839 33426 ft 497 kts 233°
2026-05-04 17:49 53.18634 -56.51309 33422 ft 511 kts 234°
2026-05-04 17:49 53.04717 -56.92470 33382 ft 510 kts 229°
2026-05-04 17:49 52.88228 -57.30898 35003 ft 516 kts 230°
2026-05-04 17:49 52.71892 -57.70313 35355 ft 519 kts 230°
2026-05-04 17:50 52.55616 -58.08601 35190 ft 499 kts 230°
2026-05-04 17:50 52.45161 -58.32924 35114 ft 485 kts 230°
2026-05-04 17:50 52.14121 -59.03743 35331 ft 484 kts 230°
2026-05-04 17:51 51.98043 -59.39693 35338 ft 496 kts 231°
2026-05-04 17:51 51.81755 -59.75607 35187 ft 493 kts 230°
2026-05-04 17:51 51.65566 -60.10798 35127 ft 481 kts 230°
2026-05-04 17:51 51.49645 -60.44930 35157 ft 475 kts 230°
2026-05-04 17:52 51.33611 -60.78872 35291 ft 480 kts 230°
2026-05-04 17:52 51.17243 -61.13060 35324 ft 490 kts 231°
2026-05-04 17:52 50.83919 -61.81335 35188 ft 479 kts 230°
2026-05-04 17:53 50.51149 -62.46737 35341 ft 478 kts 230°
2026-05-04 17:53 50.17756 -63.11763 35294 ft 481 kts 230°
2026-05-04 17:54 49.84459 -63.74988 35322 ft 466 kts 230°
2026-05-04 17:54 49.67933 -64.05827 35445 ft 466 kts 230°
2026-05-04 17:54 49.51176 -64.36726 35466 ft 471 kts 230°
2026-05-04 17:55 49.17357 -64.98010 35408 ft 464 kts 230°
2026-05-04 17:55 48.84023 -65.57048 35524 ft 458 kts 229°
2026-05-04 17:56 48.50216 -66.15594 35589 ft 463 kts 229°
2026-05-04 17:56 48.16176 -66.73251 35578 ft 458 kts 229°
2026-05-04 17:57 47.81955 -67.29992 35638 ft 460 kts 229°
2026-05-04 17:57 47.45840 -67.83153 35627 ft 470 kts 208°
2026-05-04 17:58 46.99248 -68.16838 35652 ft 465 kts 209°
2026-05-04 17:58 46.53087 -68.50445 35682 ft 462 kts 209°
2026-05-04 17:59 46.07077 -68.83352 35734 ft 461 kts 210°
2026-05-04 18:00 45.38139 -69.31522 35744 ft 458 kts 210°
2026-05-04 18:00 44.92249 -69.62868 35752 ft 457 kts 210°
2026-05-04 18:01 44.46235 -69.93741 35775 ft 457 kts 210°
2026-05-04 18:01 44.00150 -70.24114 35762 ft 458 kts 210°
2026-05-04 18:02 43.30329 -70.67757 35790 ft 467 kts 203°
2026-05-04 18:02 42.81575 -70.91153 35788 ft 463 kts 204°
2026-05-04 18:03 42.33410 -71.14255 35831 ft 461 kts 204°
2026-05-04 18:03 41.99745 -71.30174 35894 ft 458 kts 204°
2026-05-04 18:04 41.93734 -71.32998 35899 ft 458 kts 204°
2026-05-04 18:05 41.84751 -71.37207 35881 ft 447 kts 204°
2026-05-04 18:05 41.81849 -71.38561 35672 ft 439 kts 204°
2026-05-04 18:05 41.78964 -71.39912 35219 ft 436 kts 204°
2026-05-04 18:05 41.76110 -71.41245 34817 ft 432 kts 204°
2026-05-04 18:06 41.70778 -71.44509 33975 ft 409 kts 224°
2026-05-04 18:06 41.68652 -71.46967 33546 ft 402 kts 226°
2026-05-04 18:06 41.66545 -71.49411 33099 ft 398 kts 225°
2026-05-04 18:07 41.64483 -71.51774 32693 ft 394 kts 225°
2026-05-04 18:07 41.62402 -71.54131 32286 ft 390 kts 225°
2026-05-04 18:07 41.60338 -71.56450 31890 ft 385 kts 225°
2026-05-04 18:07 41.58294 -71.58735 31499 ft 382 kts 225°
2026-05-04 18:08 41.56259 -71.61001 31116 ft 378 kts 225°
2026-05-04 18:08 41.54245 -71.63242 30733 ft 375 kts 226°
2026-05-04 18:08 41.52246 -71.65463 30323 ft 373 kts 226°
2026-05-04 18:08 41.50260 -71.67669 29967 ft 372 kts 226°
2026-05-04 18:09 41.46238 -71.72137 29066 ft 378 kts 225°
2026-05-04 18:09 41.42244 -71.76553 28315 ft 369 kts 225°
2026-05-04 18:10 41.40272 -71.78733 27922 ft 365 kts 225°
2026-05-04 18:10 41.38327 -71.80881 27515 ft 362 kts 225°
2026-05-04 18:10 41.36393 -71.83016 27124 ft 359 kts 225°
2026-05-04 18:10 41.34497 -71.85110 26723 ft 357 kts 225°
2026-05-04 18:11 41.32592 -71.87211 26334 ft 354 kts 225°
2026-05-04 18:11 41.30689 -71.89308 25957 ft 356 kts 225°
2026-05-04 18:11 41.28754 -71.91443 25604 ft 366 kts 225°
2026-05-04 18:11 41.26779 -71.93619 25227 ft 372 kts 225°
2026-05-04 18:12 41.24769 -71.95825 24726 ft 375 kts 225°
2026-05-04 18:12 41.22757 -71.98030 24303 ft 374 kts 225°
2026-05-04 18:12 41.20752 -72.00224 23872 ft 372 kts 225°
2026-05-04 18:12 41.18755 -72.02411 23456 ft 371 kts 225°
2026-05-04 18:13 41.16774 -72.04581 22960 ft 369 kts 225°
2026-05-04 18:13 41.14797 -72.06744 22525 ft 366 kts 225°
2026-05-04 18:13 41.10943 -72.11008 21676 ft 355 kts 230°
2026-05-04 18:14 41.09531 -72.13589 21261 ft 340 kts 250°
2026-05-04 18:14 41.08737 -72.16493 20864 ft 333 kts 256°
2026-05-04 18:14 41.08033 -72.19408 20438 ft 331 kts 256°
2026-05-04 18:15 41.06642 -72.25186 19624 ft 327 kts 255°
2026-05-04 18:15 41.05245 -72.30903 18824 ft 325 kts 255°
2026-05-04 18:15 41.04544 -72.33743 18387 ft 323 kts 255°
2026-05-04 18:16 41.03844 -72.36568 17956 ft 322 kts 255°
2026-05-04 18:16 41.03143 -72.39385 17519 ft 320 kts 255°
2026-05-04 18:16 41.02449 -72.42169 17125 ft 317 kts 254°
2026-05-04 18:17 41.01074 -72.47671 16325 ft 312 kts 254°
2026-05-04 18:17 41.00393 -72.50392 15950 ft 310 kts 254°
2026-05-04 18:17 40.99043 -72.55776 15170 ft 306 kts 254°
2026-05-04 18:18 40.98382 -72.58408 14792 ft 305 kts 254°
2026-05-04 18:18 40.97714 -72.61063 14412 ft 303 kts 254°
2026-05-04 18:18 40.97048 -72.63711 14037 ft 302 kts 254°
2026-05-04 18:18 40.96384 -72.66345 13630 ft 301 kts 254°
2026-05-04 18:19 40.95065 -72.71577 12818 ft 298 kts 254°
2026-05-04 18:19 40.94409 -72.74170 12435 ft 296 kts 254°
2026-05-04 18:19 40.93758 -72.76737 12144 ft 290 kts 254°
2026-05-04 18:20 40.93028 -72.79148 12051 ft 279 kts 242°
2026-05-04 18:20 40.91768 -72.81089 11972 ft 282 kts 225°
2026-05-04 18:20 40.90186 -72.82678 11726 ft 286 kts 221°
2026-05-04 18:20 40.88571 -72.84202 11464 ft 285 kts 220°
2026-05-04 18:21 40.86963 -72.85710 11223 ft 281 kts 220°
2026-05-04 18:21 40.85464 -72.87291 10836 ft 271 kts 233°
2026-05-04 18:21 40.84548 -72.89419 10378 ft 266 kts 252°
2026-05-04 18:21 40.83987 -72.91742 10054 ft 263 kts 257°
2026-05-04 18:22 40.83631 -72.94089 9817 ft 258 kts 262°
2026-05-04 18:22 40.83367 -72.96381 9735 ft 246 kts 264°
2026-05-04 18:22 40.83119 -72.98590 9571 ft 242 kts 263°
2026-05-04 18:22 40.82869 -73.00773 9355 ft 244 kts 263°
2026-05-04 18:23 40.82602 -73.03052 9137 ft 248 kts 263°
2026-05-04 18:23 40.82328 -73.05337 8907 ft 249 kts 263°
2026-05-04 18:23 40.82052 -73.07592 8667 ft 249 kts 262°
2026-05-04 18:23 40.81775 -73.09832 8456 ft 249 kts 262°
2026-05-04 18:24 40.81494 -73.12088 8180 ft 249 kts 262°
2026-05-04 18:24 40.81212 -73.14332 7853 ft 247 kts 262°
2026-05-04 18:24 40.80933 -73.16548 7553 ft 245 kts 262°
2026-05-04 18:24 40.80851 -73.18763 7245 ft 241 kts 272°
2026-05-04 18:25 40.80959 -73.20963 6963 ft 239 kts 274°
2026-05-04 18:25 40.81087 -73.23143 6657 ft 238 kts 274°
2026-05-04 18:25 40.81117 -73.25324 6354 ft 237 kts 268°
2026-05-04 18:25 40.81037 -73.27491 6055 ft 236 kts 267°
2026-05-04 18:26 40.80945 -73.29634 5735 ft 235 kts 266°
2026-05-04 18:26 40.80858 -73.31778 5450 ft 233 kts 266°
2026-05-04 18:26 40.80776 -73.33905 5200 ft 230 kts 266°
2026-05-04 18:26 40.80697 -73.35989 4997 ft 225 kts 265°
2026-05-04 18:27 40.80623 -73.38006 4779 ft 221 kts 265°
2026-05-04 18:27 40.80552 -73.39991 4629 ft 212 kts 265°
2026-05-04 18:27 40.80485 -73.41903 4462 ft 204 kts 265°
2026-05-04 18:27 40.80421 -73.43728 4299 ft 195 kts 265°
2026-05-04 18:28 40.80359 -73.45500 4177 ft 191 kts 265°
2026-05-04 18:28 40.80299 -73.47234 4148 ft 188 kts 265°
2026-05-04 18:28 40.80238 -73.48950 4009 ft 185 kts 265°
2026-05-04 18:28 40.80179 -73.50640 3882 ft 184 kts 265°
2026-05-04 18:29 40.80098 -73.52306 3773 ft 180 kts 259°
2026-05-04 18:29 40.79800 -73.53906 3650 ft 179 kts 249°
2026-05-04 18:29 40.79257 -73.55385 3490 ft 180 kts 241°
2026-05-04 18:29 40.78618 -73.56820 3310 ft 182 kts 240°
2026-05-04 18:30 40.77279 -73.59647 2896 ft 182 kts 239°
2026-05-04 18:30 40.76603 -73.61036 2631 ft 179 kts 239°
2026-05-04 18:30 40.75963 -73.62409 2433 ft 170 kts 239°
2026-05-04 18:31 40.75356 -73.63745 2220 ft 170 kts 240°
2026-05-04 18:31 40.74767 -73.65060 2003 ft 162 kts 239°
2026-05-04 18:31 40.74229 -73.66299 1816 ft 153 kts 240°
2026-05-04 18:31 40.73701 -73.67531 1665 ft 155 kts 240°
2026-05-04 18:32 40.73102 -73.68686 1592 ft 158 kts 228°
2026-05-04 18:32 40.72260 -73.69510 1529 ft 142 kts 210°
2026-05-04 18:32 40.71408 -73.70103 1486 ft 138 kts 211°
2026-05-04 18:32 40.70565 -73.70750 1375 ft 142 kts 213°
2026-05-04 18:33 40.69729 -73.71415 1242 ft 140 kts 213°
2026-05-04 18:33 40.68904 -73.72075 1051 ft 139 kts 214°
2026-05-04 18:33 40.68076 -73.72721 916 ft 137 kts 211°
2026-05-04 18:33 40.67252 -73.73365 704 ft 140 kts 211°
2026-05-04 18:34 40.66414 -73.74023 511 ft 139 kts 208°
2026-05-04 18:34 40.65607 -73.74648 298 ft 131 kts 208°
2026-05-04 18:34 40.64836 -73.75247 126 ft 127 kts 207°
2026-05-04 18:34 40.64080 -73.75835 30 ft 121 kts 209°
2026-05-04 18:35 40.63534 -73.76260 28 ft 58 kts 211°
2026-05-04 18:35 40.63284 -73.76456 27 ft 38 kts 211°
2026-05-04 18:35 40.63071 -73.76623 29 ft 28 kts 216°
2026-05-04 18:35 40.62967 -73.76803 28 ft 16 kts 240°
2026-05-04 18:36 40.62928 -73.76925 28 ft 14 kts 265°
2026-05-04 18:36 40.62959 -73.77048 27 ft 12 kts 280°
2026-05-04 18:36 40.62958 -73.77052 27 ft 0 kts 270°
2026-05-04 18:36 40.62961 -73.77058 27 ft 3 kts 290°
2026-05-04 18:37 40.63006 -73.77149 30 ft 18 kts 304°
2026-05-04 18:37 40.63072 -73.77285 32 ft 18 kts 301°
2026-05-04 18:37 40.63113 -73.77377 33 ft 18 kts 301°
2026-05-04 18:37 40.63174 -73.77510 35 ft 18 kts 301°
2026-05-04 18:38 40.63237 -73.77650 33 ft 19 kts 301°
2026-05-04 18:38 40.63300 -73.77789 32 ft 13 kts 301°
2026-05-04 18:38 40.63362 -73.77827 31 ft 11 kts 20°
2026-05-04 18:38 40.63426 -73.77770 31 ft 12 kts 31°
2026-05-04 18:39 40.63490 -73.77726 27 ft 9 kts
2026-05-04 18:39 40.63536 -73.77785 26 ft 10 kts 300°
2026-05-04 18:39 40.63575 -73.77861 28 ft 10 kts 317°
2026-05-04 18:39 40.63641 -73.77893 28 ft 10 kts 353°
2026-05-04 18:40 40.63711 -73.77905 28 ft 10 kts 353°
2026-05-04 18:40 40.63782 -73.77916 28 ft 10 kts 353°
2026-05-04 18:40 40.63852 -73.77927 28 ft 10 kts 353°
2026-05-04 18:40 40.63923 -73.77938 28 ft 10 kts 353°
2026-05-04 18:41 40.63988 -73.77949 28 ft 8 kts 353°
2026-05-04 18:41 40.64036 -73.77926 28 ft 8 kts 36°
2026-05-04 18:41 40.64088 -73.77911 28 ft 8 kts 352°
2026-05-04 18:41 40.64138 -73.77941 28 ft 8 kts 330°
2026-05-04 18:42 40.64176 -73.77969 28 ft 4 kts 330°
2026-05-04 18:42 40.64195 -73.77978 28 ft 0 kts 350°
2026-05-04 18:42 40.64208 -73.77976 28 ft 3 kts
2026-05-04 18:42 40.64227 -73.77967 28 ft 3 kts 24°
2026-05-04 18:43 40.64245 -73.77954 28 ft 2 kts 30°
2026-05-04 18:43 40.64251 -73.77950 28 ft 0 kts 30°
2026-05-04 18:43 40.64256 -73.77946 28 ft 1 kts 29°
2026-05-04 18:43 40.64258 -73.77945 28 ft 0 kts 29°
2026-05-04 18:56 40.64258 -73.77944 28 ft 0 kts 30°